Temperature
19 19 20 19 22 23 23 24 23 24 24 24 23 24 25 26 26 25 23 23 22 20 19 17 16 16 15 15 15 14 14 13 13 13 12 11 12 12 12 12 12 11 11 11 12 12 12 12 12
19 19 20 20 22 22 23 23 23 23 23 22 22 23 25 26 25 23 23 23 22 20 19 17 16 16 15 15 15 14 14 13 13 12 11 12 12 12 11 11 12 12 11 12 12 12 12 12 12
18 19 20 22 21 22 22 22 23 22 22 21 23 24 25 26 23 22 23 23 21 20 19 17 17 16 15 15 14 14 13 13 13 13 12 12 12 12 12 12 12 12 12 12 13 13 12 11 11
18 19 20 22 21 22 22 22 22 22 23 22 23 25 24 23 22 22 23 22 21 20 18 17 17 16 15 15 14 14 13 13 13 13 12 12 13 12 12 12 12 12 12 13 13 13 12 11 11
18 20 21 21 21 22 22 21 21 22 22 22 23 25 25 22 22 22 22 22 20 19 18 17 17 15 15 14 14 14 13 13 13 13 12 12 13 12 12 12 12 12 12 12 12 11 12 11 11
19 21 21 21 21 21 22 20 20 21 22 22 22 24 24 21 21 22 22 22 20 19 18 17 17 16 15 14 14 13 13 13 13 13 12 12 12 12 12 11 11 11 11 11 10 10 11 11 11
19 20 20 20 21 21 21 20 21 21 22 22 21 23 24 21 21 21 21 22 21 19 18 17 16 16 15 14 14 13 13 13 13 13 12 12 12 12 12 11 11 11 11 11 11 11 11 10 10
18 20 20 20 20 21 21 20 20 20 21 21 20 23 24 21 21 21 21 21 21 20 18 17 16 15 14 14 14 14 13 13 13 13 13 13 12 12 12 12 12 12 13 13 12 12 11 11 11
17 19 19 20 20 21 20 20 20 19 20 20 21 21 21 20 21 21 20 20 20 20 20 18 17 16 15 14 14 14 14 14 14 14 14 14 13 12 12 13 13 14 14 14 14 13 13 13 13
17 19 20 20 21 21 20 20 19 20 21 22 22 21 20 20 20 19 19 19 19 20 20 19 18 17 16 15 15 14 14 14 14 13 13 13 13 13 13 14 14 14 14 14 14 14 14 13 13
18 19 20 19 19 19 19 19 19 19 21 21 21 21 20 20 20 20 20 20 19 19 20 20 19 18 17 17 16 15 15 15 15 14 14 14 14 14 14 14 14 14 14 14 14 14 13 12 12
18 19 19 19 18 18 19 19 19 19 20 20 20 20 19 20 20 20 20 20 20 20 20 19 19 18 18 17 17 16 15 15 15 15 15 14 14 14 14 14 14 14 13 13 13 13 12 12 12
17 18 18 18 17 17 17 18 19 19 20 20 19 18 19 19 20 20 21 21 21 20 20 20 19 19 18 18 17 17 16 15 15 15 15 14 14 14 13 13 13 13 13 12 12 12 12 12 12
17 18 18 18 18 18 18 19 19 19 20 19 19 18 18 19 20 20 21 21 21 21 21 20 20 20 19 19 18 17 16 15 15 15 14 14 14 13 13 13 13 13 13 13 13 13 13 13 13
17 17 18 18 18 18 18 19 21 20 19 19 19 18 17 18 19 20 20 21 21 21 21 21 21 20 20 19 18 17 16 15 15 14 14 14 14 14 13 14 14 13 13 13 13 13 13 13 13
16 16 17 18 19 18 18 19 21 20 19 20 19 18 16 16 17 18 19 20 20 20 20 20 20 20 20 18 17 16 15 15 15 15 14 14 14 14 14 14 14 14 13 13 13 13 12 12 12
15 16 17 18 19 19 18 19 21 19 19 20 20 18 16 15 16 17 18 19 19 19 19 19 19 19 19 18 17 16 16 15 15 15 14 14 14 14 14 14 13 13 13 12 12 12 12 11 11
15 16 17 17 19 18 18 19 20 20 19 19 19 18 16 15 15 17 17 18 18 18 18 18 18 18 18 17 17 16 15 15 14 14 14 14 13 13 13 13 12 12 12 12 11 11 11 10 10
17 17 17 18 18 18 18 19 20 21 20 19 19 17 16 15 14 16 16 16 17 17 18 18 18 17 17 17 16 15 14 14 13 13 13 13 13 12 12 12 12 12 11 11 11 10 10 10 9
17 17 17 18 17 17 18 19 20 21 20 19 19 17 16 14 13 14 15 16 17 17 17 17 17 17 16 16 15 14 14 13 12 12 12 12 12 12 12 11 11 11 11 10 10 9 9 9 8
16 16 17 17 16 17 17 19 20 20 17 16 16 16 15 14 13 13 14 16 16 16 16 16 16 16 15 14 14 13 13 12 12 12 12 11 11 11 11 11 10 10 10 9 9 8 8 7 7
15 17 17 16 16 17 17 17 20 20 18 17 16 15 15 13 13 13 13 14 15 15 15 15 15 14 14 13 13 13 12 12 11 11 11 11 10 10 10 10 10 9 9 8 8 7 7 6 6
16 16 16 16 16 16 17 17 20 19 19 18 16 15 14 13 12 12 12 13 14 14 14 14 14 14 13 13 12 12 12 11 11 10 10 10 10 10 10 9 9 8 8 7 7 7 6 5 5
15 15 14 14 15 15 17 17 19 21 20 19 16 14 13 12 11 11 12 13 13 13 13 13 13 13 12 12 12 12 11 11 10 10 10 10 9 9 9 8 8 7 7 6 6 6 5 5 5
15 14 13 13 14 16 17 17 19 20 18 18 17 15 13 12 11 10 11 12 12 13 13 12 12 12 12 12 11 11 11 10 10 10 10 9 9 8 8 7 7 6 6 5 5 5 5 4 4
14 15 14 16 16 17 15 17 20 18 16 15 16 15 13 12 11 10 11 11 12 12 12 12 12 11 11 11 11 10 10 10 9 9 9 8 8 7 6 6 5 5 5 4 4 4 4 3 3
14 14 15 16 16 17 18 18 19 17 17 15 15 14 13 12 11 10 10 11 11 11 11 11 11 11 10 10 10 9 9 9 8 8 8 7 6 5 5 5 4 4 4 4 4 3 3 2 1
14 14 13 15 16 17 18 18 20 19 18 16 15 14 13 12 11 10 10 10 10 11 10 10 10 10 9 9 8 8 8 8 7 7 6 5 5 4 4 4 4 3 3 3 2 2 2 1 0
12 12 13 15 16 17 18 19 18 18 17 16 15 14 13 12 11 9 9 10 10 10 9 9 9 8 8 8 7 7 7 6 6 5 5 4 4 3 3 3 3 2 2 2 1 1 -0 -1 -1
15 14 14 15 15 17 18 19 17 16 15 15 15 14 13 11 10 9 9 10 9 9 9 8 8 7 7 7 6 6 6 5 5 4 4 3 3 2 2 2 2 1 1 1 -0 -1 -2 -2 -2
Wind_Speed
10 6 3 2 3 5 9 4 1 2 3 5 8 8 7 6 4 4 3 5 4 8 13 15 14 16 15 15 14 12 10 7 5 5 4 4 4 4 3 1 1 1 2 3 5 7 8 6 4
8 4 3 3 4 7 6 2 2 4 8 11 7 6 6 4 2 2 3 7 5 8 12 14 16 15 15 15 14 12 9 7 5 5 5 5 5 4 3 1 1 2 3 3 5 7 8 7 5
5 3 3 3 4 6 2 1 4 9 10 5 4 4 4 2 1 2 4 9 7 8 11 12 14 14 14 15 14 11 9 6 5 5 5 5 6 5 4 2 1 2 3 4 5 7 6 7 5
4 2 2 4 5 4 5 5 8 10 6 4 5 5 3 3 3 4 5 9 7 8 10 12 12 13 14 14 13 11 8 6 6 5 6 7 7 7 5 2 1 2 3 5 6 7 7 7 7
3 3 5 6 5 4 5 6 7 8 9 6 6 6 1 4 3 2 4 8 6 7 9 11 12 12 13 13 13 11 8 6 6 6 6 6 5 5 4 2 0 2 4 5 6 7 7 8 9
4 4 8 8 5 4 5 3 5 7 7 6 6 6 2 5 4 2 3 7 6 7 8 10 12 10 12 12 12 11 9 7 7 6 6 5 4 2 2 3 3 4 5 6 7 8 8 9 10
6 7 11 10 7 5 2 2 6 9 8 6 7 5 1 7 7 2 4 6 5 6 8 8 11 12 13 12 12 11 10 9 8 8 7 4 2 2 2 3 5 6 7 8 9 10 11 11 12
6 6 11 10 8 5 1 3 6 8 9 7 4 4 2 10 7 1 3 5 6 7 7 8 9 10 12 13 13 12 11 10 9 8 7 5 5 5 4 5 4 6 8 9 11 12 13 13 13
5 10 14 12 7 4 2 5 6 6 8 7 6 6 6 8 5 1 3 6 7 7 8 8 9 9 10 10 10 12 13 12 11 10 9 8 9 9 7 7 5 8 10 11 12 13 13 14 14
9 15 18 10 8 5 6 9 8 8 11 10 8 7 7 9 7 5 5 7 9 11 11 10 10 10 10 9 9 10 10 10 10 9 7 7 8 7 8 6 9 11 12 13 14 15 15 15 12
11 17 14 11 8 6 8 10 7 9 12 10 12 16 14 11 9 7 7 7 9 10 10 11 11 11 10 8 8 7 7 8 9 9 8 7 7 7 8 8 8 10 11 11 10 11 11 11 10
15 16 13 10 6 6 9 10 12 14 17 17 18 17 15 14 11 10 8 6 7 8 9 10 11 11 11 10 8 8 7 6 6 7 8 7 5 6 6 6 7 8 7 8 9 8 10 11 13
21 16 13 12 9 10 11 15 16 20 21 19 16 15 14 12 12 9 6 4 5 7 8 9 11 12 11 11 9 8 8 7 7 7 7 8 6 6 6 6 7 8 8 8 8 9 11 11 12
18 18 16 14 14 12 14 18 17 19 16 14 12 11 9 9 8 6 4 4 4 5 6 7 10 12 12 10 9 8 7 6 7 6 7 7 7 6 6 7 7 7 8 8 8 10 10 10 10
17 15 17 16 14 10 10 17 18 15 11 11 7 5 3 3 3 3 4 4 4 5 5 6 8 10 12 11 9 6 5 5 5 5 6 6 6 6 6 7 7 7 8 9 8 10 9 9 10
18 19 20 18 15 13 10 19 14 7 7 8 5 3 1 2 3 4 4 4 4 5 5 4 3 5 8 7 5 4 2 2 3 3 4 4 5 6 5 6 6 7 7 7 7 8 9 10 10
16 20 21 17 16 15 15 17 10 6 10 12 8 4 2 3 4 6 5 5 5 6 6 6 5 4 5 6 4 3 3 2 2 3 3 4 4 4 4 4 6 7 6 6 6 7 9 10 11
21 21 19 16 9 13 15 18 15 13 12 13 8 6 4 4 6 6 6 6 7 8 9 10 11 10 10 8 8 8 8 8 8 8 9 10 9 9 7 6 7 7 6 7 8 9 9 10 10
19 20 18 16 9 8 15 18 18 16 12 13 10 9 8 7 7 7 8 8 9 11 12 13 13 11 10 9 9 9 10 10 10 11 14 14 13 13 10 8 9 9 8 8 10 9 11 10 11
18 19 17 12 6 7 13 19 19 16 11 9 10 12 12 11 10 9 10 10 11 13 13 14 14 13 12 11 10 10 11 10 10 9 12 14 14 13 10 10 8 8 7 9 9 9 9 9 10
21 19 17 10 6 7 8 13 11 6 4 4 8 11 12 13 13 12 11 11 11 13 13 13 15 15 14 13 11 10 9 8 8 9 9 11 12 12 11 10 8 8 8 7 9 10 10 10 11
21 16 12 9 7 5 2 6 8 8 7 6 9 12 13 13 13 13 12 12 12 12 12 14 15 15 14 12 11 12 10 9 7 6 7 8 10 11 11 10 9 8 8 8 9 9 10 10 10
14 13 11 8 8 8 9 8 8 6 8 9 12 14 14 14 13 13 12 12 11 11 11 13 15 15 13 13 12 12 10 8 6 6 7 7 7 9 10 9 8 8 8 9 10 10 10 9 9
11 12 6 2 4 8 10 9 7 3 2 4 13 15 15 14 13 13 12 11 11 10 11 12 14 13 12 12 12 12 11 9 8 7 7 6 5 6 10 9 8 8 8 9 9 10 10 9 10
14 11 6 6 8 8 5 7 8 1 0 2 13 17 16 15 14 14 14 12 11 11 11 11 13 13 11 12 11 11 10 8 8 7 7 7 6 6 10 9 9 9 9 9 10 9 9 9 10
18 14 7 7 8 5 6 7 4 2 1 2 9 16 17 16 15 14 13 12 11 11 11 11 12 11 11 10 10 9 8 6 6 7 6 7 6 7 9 9 9 9 10 10 10 9 9 9 11
14 11 3 0 3 4 5 5 5 3 2 2 10 17 18 17 15 14 13 12 11 11 10 11 11 10 10 9 8 8 7 7 6 6 6 5 6 6 9 9 10 10 10 11 11 9 11 11 12
6 10 6 4 5 5 4 5 3 3 1 1 10 18 19 17 15 14 12 12 11 10 10 10 10 9 8 7 7 6 6 6 5 5 6 6 7 7 9 10 11 11 11 12 12 11 11 13 13
9 8 7 7 4 4 4 3 1 4 6 3 9 17 19 17 16 14 12 12 11 11 10 10 9 8 7 6 6 6 5 5 4 5 6 6 7 8 10 10 11 12 12 13 13 13 14 15 15
11 12 11 8 7 5 4 2 3 4 5 2 8 14 16 16 14 13 13 12 11 11 10 9 8 7 6 5 5 5 4 4 4 5 6 7 8 9 10 10 11 12 13 13 14 14 15 16 17
Wind_Direction
325 332 310 275 242 232 231 207 242 304 314 325 308 285 282 293 318 358 65 144 132 154 166 171 177 171 170 169 165 164 170 181 195 207 212 216 215 216 211 169 47 20 19 12 352 347 347 348 355
325 318 298 281 253 234 220 214 244 309 315 315 292 250 252 255 292 29 110 150 152 158 167 175 165 173 173 172 170 169 175 189 208 227 235 235 223 216 208 195 44 9 11 7 350 337 343 353 6
306 330 318 275 253 252 227 83 324 320 314 294 278 247 270 311 72 61 93 151 161 163 173 169 164 175 176 175 171 172 180 197 219 236 250 262 241 218 209 208 355 359 360 352 338 329 329 344 353
294 277 265 263 262 267 277 309 327 323 324 295 285 276 231 24 31 54 117 159 166 167 175 170 173 178 181 177 173 174 184 207 230 241 251 274 256 224 208 202 344 350 343 333 326 326 314 311 314
280 266 256 255 268 275 280 309 316 317 322 319 306 292 327 52 23 69 137 168 175 169 175 171 178 186 187 182 177 177 187 211 234 245 253 279 278 238 215 191 247 322 323 321 314 311 308 301 293
252 243 251 257 264 285 281 292 305 313 322 319 317 294 57 45 18 58 145 171 180 171 175 172 179 194 192 190 184 184 193 212 234 248 260 282 309 272 227 209 243 283 303 306 296 289 287 286 286
244 240 251 256 269 280 257 294 309 319 313 324 324 284 147 46 23 37 149 162 170 173 179 182 187 195 199 203 197 194 200 212 230 246 260 270 302 321 282 270 270 277 289 298 297 290 283 277 277
243 237 240 242 252 270 238 296 306 305 306 320 297 279 11 11 11 62 157 166 171 180 192 196 198 203 205 208 206 206 207 212 225 240 256 258 239 234 244 256 263 278 285 290 294 294 292 287 284
221 232 236 234 239 249 248 303 311 293 283 289 272 280 335 348 354 259 190 187 189 195 203 208 210 213 217 221 210 213 215 217 225 232 229 245 254 253 245 261 262 266 272 276 279 283 286 288 276
213 231 235 235 233 256 292 299 305 297 287 284 270 274 304 322 320 298 256 223 208 207 208 209 214 217 220 222 225 227 227 226 231 242 241 251 258 264 271 269 252 259 263 266 265 270 274 271 270
214 231 236 232 235 262 283 290 286 287 287 284 296 304 315 314 306 298 282 249 227 217 212 214 215 217 220 219 226 227 228 233 236 241 247 254 262 263 263 266 255 255 256 267 267 268 268 271 275
221 229 230 235 224 240 270 284 284 275 274 287 293 298 299 298 300 302 297 266 236 227 225 222 218 218 220 222 223 227 227 229 233 236 243 249 255 261 267 267 274 277 276 279 280 280 282 281 280
222 224 226 241 247 260 269 271 281 278 280 288 289 284 281 287 295 300 296 270 247 242 238 232 225 222 218 218 224 227 229 233 235 239 244 247 256 267 276 280 284 284 287 286 287 289 293 291 289
220 228 235 243 253 260 267 275 274 273 289 293 285 277 283 294 303 302 304 292 277 268 260 246 233 226 220 216 218 224 232 237 250 252 257 260 267 279 289 289 287 287 287 288 288 289 289 286 285
220 223 233 237 244 251 268 274 262 269 287 285 283 284 303 331 348 351 347 329 324 310 295 273 252 234 225 222 224 232 241 254 262 269 277 275 275 281 283 284 286 289 292 293 291 294 291 289 289
211 224 235 234 235 241 246 265 269 279 272 276 278 274 282 45 40 33 14 2 358 349 346 342 284 229 216 213 212 219 248 274 282 293 293 290 289 286 289 293 303 314 314 310 309 308 304 300 299
203 216 224 232 232 237 236 262 267 253 272 273 263 241 196 112 71 50 37 31 25 25 31 42 58 105 143 150 139 120 98 68 43 26 10 6 359 349 337 340 340 339 335 330 325 317 315 310 308
197 208 215 219 214 218 232 252 271 280 267 263 246 209 174 127 80 62 56 53 53 54 59 66 73 86 106 114 110 99 85 75 66 60 56 55 52 47 41 33 21 11 5 359 350 336 326 315 314
203 208 212 217 214 230 249 264 276 282 264 250 226 196 171 133 102 87 78 74 72 66 65 65 70 80 93 101 102 96 87 81 73 65 61 58 55 50 45 37 29 19 14 5 354 345 332 326 329
204 203 208 216 210 247 267 275 277 273 258 240 212 189 168 145 125 104 93 82 77 75 74 73 72 74 78 85 87 91 92 81 75 67 58 52 49 44 38 31 23 15 2 358 353 348 333 324 327
203 204 203 200 193 229 280 276 254 226 207 207 198 180 165 153 137 123 107 94 87 79 78 79 80 81 85 92 98 101 97 88 71 59 53 46 44 40 35 26 15 6 358 351 347 344 336 326 323
201 203 202 205 238 238 258 287 260 232 221 196 179 172 165 154 141 131 122 110 98 90 87 85 84 82 83 88 91 90 86 78 66 55 52 49 42 35 26 19 10 2 357 351 347 344 334 329 325
194 183 200 223 250 266 246 261 271 231 241 210 183 173 167 160 149 140 130 120 109 101 94 91 87 83 81 83 86 87 84 82 73 59 47 38 35 31 20 12 6 1 356 352 345 340 337 331 327
145 146 141 167 224 249 234 231 271 229 222 171 177 175 170 162 153 143 136 128 117 110 101 98 94 88 85 83 81 81 81 76 66 50 36 25 21 17 16 6 4 1 357 349 343 337 335 330 326
174 158 153 180 207 230 179 222 254 297 158 190 182 178 173 166 161 155 149 141 130 120 111 108 103 97 91 87 82 81 79 72 58 40 27 18 12 9 5 1 357 356 350 342 338 330 326 321 320
186 185 184 188 195 186 179 230 251 59 92 233 193 178 172 171 168 163 155 147 138 128 123 117 109 103 97 91 86 81 73 63 52 37 25 17 7 1 354 349 346 345 340 335 333 320 318 314 313
172 191 211 210 158 204 205 237 272 149 146 179 184 177 177 175 171 165 157 152 143 135 129 124 117 109 103 97 92 80 68 59 49 34 25 16 5 350 346 342 339 337 335 332 327 317 315 318 314
165 157 159 199 194 210 212 231 216 167 319 152 181 181 179 175 171 165 160 153 144 134 129 125 119 114 108 99 88 78 66 55 42 30 21 8 356 348 341 339 335 333 330 328 323 317 317 316 313
151 160 178 195 239 224 200 167 113 304 311 267 192 184 178 175 173 167 159 151 142 137 136 132 127 121 111 99 88 77 63 47 34 24 11 357 348 342 338 334 329 327 325 324 320 318 317 313 310
186 182 182 191 201 219 232 156 97 313 315 249 181 176 174 173 169 163 156 151 149 147 145 141 136 126 112 97 83 69 54 34 22 14 2 349 342 336 332 326 322 322 321 321 318 316 314 311 309
Height
1537 1535 1533 1532 1530 1526 1521 1518 1517 1517 1515 1516 1516 1514 1510 1508 1508 1512 1509 1506 1505 1504 1503 1504 1506 1508 1509 1510 1511 1511 1511 1511 1509 1509 1508 1509 1509 1509 1508 1508 1507 1507 1506 1505 1505 1505 1506 1506 1505
1536 1535 1534 1532 1528 1527 1523 1518 1519 1518 1518 1516 1514 1512 1510 1507 1508 1509 1507 1506 1504 1504 1503 1504 1505 1507 1509 1510 1511 1511 1511 1510 1509 1508 1508 1509 1509 1509 1508 1508 1507 1506 1505 1504 1504 1504 1504 1504 1504
1536 1534 1534 1530 1528 1526 1523 1520 1519 1519 1518 1516 1512 1511 1509 1508 1508 1508 1506 1505 1504 1504 1503 1504 1505 1506 1508 1509 1510 1511 1510 1510 1508 1507 1508 1508 1509 1509 1508 1508 1507 1506 1504 1503 1503 1502 1502 1503 1503
1536 1535 1534 1529 1528 1524 1522 1520 1521 1519 1516 1515 1513 1509 1508 1508 1508 1507 1506 1505 1505 1505 1504 1504 1505 1506 1508 1509 1509 1510 1510 1509 1508 1507 1507 1508 1508 1509 1508 1507 1507 1505 1504 1503 1502 1501 1502 1502 1502
1536 1534 1530 1528 1526 1523 1522 1523 1522 1519 1516 1514 1513 1508 1507 1508 1506 1506 1506 1505 1505 1505 1505 1505 1505 1507 1508 1508 1509 1509 1509 1508 1507 1507 1507 1508 1508 1508 1508 1507 1506 1505 1503 1502 1501 1501 1501 1501 1500
1535 1531 1529 1527 1523 1522 1521 1523 1522 1519 1516 1514 1512 1509 1507 1508 1506 1505 1505 1505 1505 1505 1505 1506 1505 1507 1507 1508 1508 1508 1508 1508 1507 1507 1507 1507 1508 1508 1508 1507 1506 1505 1503 1502 1501 1501 1500 1500 1499
1533 1528 1526 1525 1523 1521 1521 1522 1520 1518 1515 1513 1513 1509 1507 1508 1506 1505 1504 1505 1505 1505 1505 1506 1506 1506 1507 1507 1507 1507 1507 1507 1507 1506 1506 1507 1507 1507 1507 1506 1505 1504 1503 1502 1501 1500 1500 1499 1498
1530 1527 1525 1524 1523 1520 1520 1521 1520 1518 1514 1514 1512 1509 1507 1508 1505 1504 1503 1504 1504 1504 1505 1505 1506 1507 1507 1507 1507 1506 1506 1506 1506 1506 1506 1505 1505 1505 1505 1505 1504 1503 1501 1500 1500 1499 1498 1497 1496
1529 1526 1521 1520 1521 1518 1519 1519 1518 1517 1515 1512 1511 1509 1508 1506 1504 1503 1502 1503 1503 1503 1504 1504 1505 1506 1506 1507 1506 1506 1505 1505 1504 1505 1504 1504 1505 1505 1505 1503 1502 1501 1500 1499 1498 1497 1496 1495 1493
1525 1520 1516 1517 1517 1517 1518 1518 1518 1515 1512 1509 1508 1508 1507 1505 1504 1503 1502 1502 1501 1502 1502 1502 1503 1504 1504 1505 1505 1505 1505 1504 1504 1505 1505 1504 1504 1504 1503 1502 1501 1500 1499 1498 1497 1496 1494 1492 1491
1519 1515 1514 1517 1518 1518 1517 1516 1516 1514 1509 1507 1506 1505 1504 1503 1502 1501 1500 1499 1499 1499 1499 1500 1500 1501 1502 1503 1503 1504 1504 1503 1503 1503 1503 1503 1502 1502 1501 1500 1499 1498 1497 1496 1495 1493 1492 1490 1489
1515 1513 1515 1515 1517 1517 1516 1514 1513 1511 1507 1506 1504 1502 1500 1499 1499 1498 1497 1497 1496 1496 1496 1497 1497 1498 1499 1500 1501 1502 1502 1502 1502 1502 1501 1501 1501 1500 1500 1499 1498 1497 1495 1494 1492 1491 1490 1488 1486
1511 1511 1513 1514 1516 1516 1514 1511 1509 1505 1503 1502 1500 1498 1496 1495 1495 1495 1494 1493 1493 1493 1493 1493 1494 1495 1496 1497 1498 1499 1500 1500 1500 1500 1500 1500 1499 1499 1498 1497 1496 1495 1493 1491 1490 1488 1486 1484 1482
1507 1510 1510 1511 1512 1513 1511 1506 1505 1499 1500 1497 1495 1494 1492 1491 1490 1490 1490 1490 1490 1490 1490 1490 1491 1491 1492 1494 1495 1496 1498 1498 1498 1498 1497 1497 1496 1495 1495 1494 1493 1492 1490 1488 1487 1485 1482 1480 1477
1506 1508 1506 1506 1508 1508 1508 1501 1496 1496 1496 1494 1492 1491 1488 1486 1485 1485 1486 1486 1487 1487 1487 1487 1487 1488 1489 1490 1492 1493 1494 1495 1495 1495 1494 1494 1493 1493 1492 1491 1490 1489 1487 1485 1483 1481 1478 1475 1472
1503 1505 1503 1499 1502 1504 1508 1496 1491 1493 1493 1491 1490 1489 1487 1484 1483 1483 1483 1484 1484 1484 1484 1484 1483 1483 1484 1486 1488 1489 1491 1491 1491 1492 1491 1491 1491 1490 1489 1488 1487 1485 1483 1481 1479 1476 1473 1470 1467
1496 1497 1496 1496 1496 1498 1499 1491 1488 1490 1490 1487 1486 1486 1485 1484 1482 1482 1482 1482 1483 1483 1482 1481 1481 1480 1481 1482 1484 1486 1488 1489 1489 1489 1489 1489 1488 1487 1486 1485 1483 1482 1480 1478 1476 1473 1470 1466 1463
1488 1488 1490 1492 1490 1493 1492 1487 1484 1485 1485 1483 1482 1483 1483 1483 1482 1481 1481 1482 1482 1482 1482 1481 1481 1480 1480 1482 1483 1485 1486 1487 1487 1488 1487 1487 1486 1485 1484 1483 1481 1480 1478 1476 1473 1470 1467 1464 1460
1479 1483 1486 1487 1487 1491 1487 1482 1479 1478 1479 1477 1478 1479 1481 1481 1481 1481 1482 1482 1483 1484 1484 1483 1482 1482 1482 1483 1484 1485 1485 1486 1487 1487 1487 1486 1486 1485 1484 1482 1481 1479 1476 1474 1471 1467 1464 1461 1457
1477 1481 1484 1484 1489 1489 1483 1478 1472 1470 1471 1472 1473 1475 1477 1480 1481 1481 1482 1484 1485 1485 1484 1484 1484 1484 1485 1485 1486 1486 1487 1487 1487 1488 1488 1487 1486 1485 1484 1482 1480 1477 1475 1471 1468 1464 1460 1456 1453
1476 1477 1479 1482 1487 1485 1484 1473 1465 1465 1469 1470 1470 1473 1476 1478 1480 1481 1483 1484 1485 1485 1485 1485 1486 1486 1486 1487 1488 1488 1489 1489 1489 1490 1489 1488 1487 1485 1483 1481 1478 1475 1471 1468 1464 1460 1456 1452 1449
1474 1474 1478 1483 1485 1481 1484 1479 1462 1459 1463 1466 1468 1471 1474 1478 1479 1481 1483 1484 1485 1486 1486 1487 1487 1487 1488 1490 1491 1491 1491 1490 1490 1490 1489 1488 1486 1484 1482 1479 1475 1472 1468 1464 1461 1457 1453 1449 1445
1468 1474 1479 1482 1484 1484 1478 1480 1459 1456 1457 1458 1464 1469 1473 1476 1479 1481 1482 1484 1485 1486 1487 1488 1488 1489 1490 1491 1492 1491 1491 1491 1491 1490 1489 1487 1485 1482 1479 1475 1472 1468 1464 1461 1457 1454 1450 1446 1442
1470 1476 1483 1485 1485 1486 1471 1473 1459 1448 1450 1453 1461 1467 1471 1475 1478 1480 1482 1483 1485 1486 1488 1489 1489 1490 1491 1491 1491 1491 1491 1491 1491 1490 1488 1485 1482 1479 1476 1472 1468 1465 1461 1458 1454 1451 1447 1443 1439
1467 1475 1489 1491 1487 1474 1469 1469 1454 1446 1451 1454 1458 1464 1469 1474 1477 1479 1481 1483 1484 1486 1488 1489 1490 1490 1491 1491 1491 1491 1491 1491 1489 1488 1486 1483 1481 1477 1473 1470 1466 1462 1459 1455 1451 1448 1443 1439 1435
1461 1467 1473 1471 1469 1464 1473 1466 1447 1450 1453 1455 1457 1462 1467 1472 1476 1479 1480 1482 1484 1486 1488 1489 1490 1490 1490 1491 1490 1490 1490 1489 1488 1486 1484 1481 1478 1474 1471 1467 1463 1459 1456 1452 1448 1443 1438 1434 1429
1462 1466 1465 1463 1464 1463 1456 1453 1445 1449 1450 1453 1455 1459 1465 1470 1474 1477 1479 1481 1483 1485 1487 1488 1489 1490 1490 1490 1489 1489 1488 1487 1485 1483 1481 1478 1475 1471 1467 1464 1460 1456 1452 1448 1443 1438 1433 1428 1423
1456 1460 1470 1469 1465 1461 1454 1451 1443 1442 1445 1450 1453 1456 1462 1468 1473 1476 1478 1480 1482 1484 1486 1487 1488 1489 1489 1488 1488 1487 1486 1485 1483 1480 1478 1475 1471 1468 1464 1461 1457 1452 1448 1443 1438 1432 1427 1422 1417
1460 1464 1464 1464 1459 1455 1454 1447 1441 1443 1444 1446 1450 1454 1459 1465 1470 1474 1476 1479 1481 1483 1485 1486 1487 1487 1487 1487 1486 1485 1484 1482 1479 1477 1475 1471 1468 1465 1461 1457 1453 1448 1443 1438 1432 1427 1422 1416 1411
1448 1452 1457 1461 1460 1453 1448 1446 1443 1444 1445 1446 1448 1453 1459 1464 1469 1472 1474 1477 1479 1482 1483 1485 1485 1486 1485 1485 1484 1483 1481 1479 1477 1474 1471 1468 1465 1461 1457 1453 1448 1443 1438 1432 1427 1421 1416 1411 1405